Find Starlink 30208

NORAD ID: 57415 Int'l Des: 2023-102 Owner: SPXS Country: US Constellation: starlink operational
LEOCIRCULAR

当前视图

正在加载3D地球...

About Starlink 30208

Starlink 30208 (NORAD 57415) is a starlink constellation satellite (v2 mini) launched Jul 19, 2023 by SPXS of US. It operates in LEO, CIRCULAR orbit with a mass of 730.00 kg.

关于 Starlink 30208

正在加载描述...

即将过境

Passes for default location (London). Set your location on the main map for personalized predictions.

高度历史

Loading altitude history...

两行轨道根数

1 57415U 23102M 26171.30060002 -.00000310 00000-0 -17565-5 0 9993
2 57415 43.0066 29.0253 0000951 283.4715 76.6031 15.27578794161881
Epoch: Jun 20, 2026 • Age: 47 hours

当前状态

高度 495.6 km
速度 7.62 km/s
星下点 -42.68°S, 60.9°W
发射日期 Jul 19, 2023
运行时间 2.9 years
类型 internet

技术详情

分类 Payload
质量 730.00 kg
干质量 700.00 kg
总质量 730.00 kg
长度 0.30 m
直径 4.10 m
跨度 29.00 m
形状 Box + pan
制造商 SPXS
平台类型 Starlink V2M
阶段状态 In Orbit
所有者/国家 SPXS/US

Most Searched